Location: Marcé
(47.5801°N, 0.3280°W)
Time: 15:06:49
(UTC+01:00)

Tiros 1 despin weight - Pass Details

Date: 16 December 2021
Orbit: 592 x 641 km, 48.2° (Epoch: 19 January)

Event Time Altitude Azimuth Distance (km) Brightness Sun altitude
Rises 12:48:42 0° 278° (W) 2,863 ? 19.1°
Reaches altitude 10° 12:51:01 10° 278° (W) 1,950 ? 19.1°
Maximum altitude 12:55:30 87° 8° (N) 604 ? 19.1°
Drops below altitude 10° 12:59:55 10° 98° (E) 1,926 ? 19.1°
Sets 13:02:12 0° 99° (E) 2,823 ? 19.1°
